Main page
METAR-TAF:

METAR-TAF

Airports :

Kalaleh Airport

Kalaleh, Iran

latitude: 37-22-60N, longitude: 55-27-07E, elevation: 130 m

Current weather observation

The report was made 1 hour and 4 minutes ago, at 03:00 UTC
Wind 4 kt from the East
Temperature 10°C
Humidity 82%
Pressure 1020 hPa
Visibility 10 km or more
Few clouds at a height of 3000 ft
Overcast at a height of 9000 ft

METAR: OINE 230300Z 10004KT 9999 FEW030 OVC090 10/07 Q1020

Time: 07:34 (04:04 UTC)


TAF: missing

Weather observations and forecasts of more than 4000 airports (METAR and TAF reports).

The available stations are represented by yellow and red dots on the map.

Hover mouse over dot to see the name of the station.

Then click to see weather observations and forecasts.

To change the map : click on the green buttons with a black cross to zoom in, on the green button with a dash to zoom out, or on the green arrows for adjacent maps.


METAR-TAF: